RH
3 11 56 68 67 78 73 53 66 68 19 8 10 10 13 13 10 10 10 9 7 8 8 7 8 7 9 9 11 12 11 11 10
2 2 6 39 69 69 76 76 59 82 89 25 7 9 10 11 11 10 11 9 8 8 8 8 8 7 10 10 12 12 11 11 10
1 2 2 4 25 62 72 76 73 71 91 93 33 7 9 10 11 10 10 10 8 8 8 8 9 8 10 10 12 11 11 12 11
2 1 1 2 3 16 52 70 74 75 77 87 94 35 7 9 10 10 10 11 9 8 8 9 9 9 11 11 11 10 11 11 11
2 2 1 1 1 2 11 39 69 75 79 77 78 93 51 9 8 10 10 10 11 10 10 10 8 10 11 11 11 11 11 11 11
3 2 2 1 1 1 2 7 28 71 81 82 78 79 94 85 18 8 10 10 10 10 11 10 8 10 12 12 11 12 13 13 12
3 3 2 2 2 1 1 1 5 26 74 88 81 77 76 93 86 44 8 10 10 10 8 9 8 10 12 13 13 15 15 15 14
4 3 3 3 2 2 1 1 1 4 28 75 84 82 76 80 89 90 66 10 9 10 10 8 8 9 12 12 13 15 16 16 16
4 4 4 3 3 2 2 2 1 1 5 98 100 94 95 96 92 86 90 89 25 9 10 11 10 9 10 12 12 13 14 15 16
5 5 4 4 3 3 2 2 2 1 1 5 26 100 93 91 89 94 85 93 94 46 10 10 10 11 10 10 11 12 13 13 14
6 5 5 4 4 3 2 2 2 2 1 1 4 38 98 98 100 100 99 91 81 93 91 30 10 11 11 12 11 11 11 12 12
6 6 6 5 4 3 3 2 2 2 2 1 1 7 33 65 96 98 100 99 91 95 99 95 78 23 10 12 12 13 13 12 13
7 7 6 6 4 4 3 2 2 2 2 1 1 2 15 83 100 98 97 99 100 99 92 96 100 97 44 21 13 15 14 13 13
8 8 7 6 5 4 2 2 2 2 1 1 1 2 2 14 96 90 100 90 99 100 99 100 100 100 100 96 80 57 20 14 14
10 9 8 7 6 4 2 2 2 2 1 1 2 2 2 2 48 100 99 100 100 94 94 99 98 98 99 98 98 94 68 23 18
12 10 9 8 6 4 2 2 2 2 2 2 2 2 3 3 3 27 97 100 100 100 100 100 99 99 84 61 66 66 97 94 88
13 12 10 9 6 4 2 2 2 2 2 2 2 2 3 4 7 5 31 87 99 99 100 99 99 86 79 71 64 60 59 75 94
14 12 11 9 7 4 2 2 3 3 3 2 2 2 2 4 8 14 15 48 92 98 99 100 95 77 90 84 71 63 53 74 99
14 13 12 10 7 5 3 3 3 3 3 3 3 3 3 4 11 22 39 48 99 98 99 92 99 83 78 69 68 41 41 86 100
15 14 12 10 8 5 3 3 4 4 4 4 3 3 3 3 7 18 31 48 68 83 95 84 38 12 13 16 21 21 42 78 74
Wind_Speed
5 7 8 6 5 3 3 4 5 8 9 9 9 10 11 11 10 10 8 6 2 4 4 5 6 8 10 9 9 9 8 9 9
3 7 9 10 9 8 5 4 5 6 7 8 9 9 10 11 11 10 9 7 4 2 4 4 5 7 7 7 7 7 7 7 7
8 3 7 10 12 12 10 7 5 6 6 7 8 8 9 9 11 12 10 8 6 2 2 4 5 6 7 5 5 4 5 4 6
15 10 4 6 11 13 13 11 8 7 8 7 7 8 8 9 9 10 10 8 6 4 1 2 4 6 6 5 4 3 2 3 4
17 16 13 7 6 10 14 14 12 10 10 10 8 7 7 7 8 9 10 10 8 5 3 2 2 4 5 4 3 2 1 2 3
15 16 16 15 9 6 10 14 14 14 13 13 13 9 6 8 7 7 9 9 9 7 4 3 3 3 2 2 2 1 0 2 4
13 14 15 15 15 11 6 9 13 15 16 15 15 14 11 8 8 7 6 7 8 8 7 5 4 3 4 4 4 5 5 5 6
10 11 13 14 15 14 12 7 8 13 16 17 19 18 14 10 10 8 7 8 7 7 7 8 6 5 6 6 6 7 8 8 8
10 11 11 12 13 13 13 12 10 8 10 10 13 13 17 12 14 12 9 8 9 7 8 7 7 7 8 8 9 9 10 11 11
8 9 10 10 11 12 12 12 12 10 8 12 16 13 17 14 13 14 13 11 10 8 8 8 9 9 9 11 12 12 12 12 12
7 7 8 9 9 10 10 11 12 12 10 8 11 17 20 15 10 11 16 15 17 12 10 10 10 10 11 11 13 14 14 15 15
9 8 8 8 8 8 8 9 10 12 12 10 8 9 21 23 20 22 16 15 19 13 15 13 13 13 13 13 13 15 16 17 18
8 8 9 9 9 8 8 8 9 10 11 11 9 7 11 16 13 21 24 15 14 18 21 16 16 18 12 13 14 15 16 16 18
8 8 9 9 9 8 8 7 8 9 10 11 10 7 6 16 19 15 15 25 22 14 14 15 16 17 14 17 19 18 19 19 18
8 8 8 9 9 8 7 7 7 8 9 9 9 8 4 7 19 18 22 17 19 23 23 14 14 16 17 18 20 19 20 18 20
9 8 8 8 8 8 7 6 5 5 6 7 8 8 7 3 8 18 21 22 19 23 13 11 11 13 6 8 14 17 15 18 21
10 10 9 8 8 8 7 6 5 4 4 5 6 6 6 7 3 8 18 20 18 14 10 7 11 13 15 9 15 22 19 15 15
11 10 10 10 9 8 8 7 6 4 3 3 4 3 5 6 6 5 3 14 17 15 14 7 19 14 13 15 19 20 24 17 15
13 12 11 10 10 9 9 9 7 6 4 2 1 1 2 3 4 6 4 5 8 7 10 8 12 12 14 16 19 22 19 13 12
14 13 12 11 11 11 11 10 9 7 5 3 1 0 1 1 2 3 5 6 5 2 4 11 15 15 13 12 11 13 9 12 16
Wind_Direction
253 239 234 233 241 268 319 336 351 3 13 16 13 20 32 23 21 25 21 5 52 78 74 95 117 124 124 120 112 103 90 77 79
295 253 244 236 240 243 266 304 336 348 355 1 12 12 26 22 17 26 26 20 4 94 109 120 134 132 129 122 113 100 89 80 82
22 310 256 245 239 243 249 262 287 311 328 345 355 3 25 16 17 19 25 25 20 12 121 145 144 144 134 124 103 102 83 77 79
32 22 343 267 251 244 243 250 261 279 297 313 332 345 11 11 17 19 20 22 31 7 19 191 154 163 151 143 138 118 95 56 44
31 29 23 356 285 261 252 243 246 259 274 285 296 322 344 359 7 13 18 15 9 17 357 314 233 188 179 163 152 141 79 30 18
26 24 25 22 6 291 262 253 241 245 256 271 280 284 311 329 357 12 5 9 10 354 348 326 305 261 262 265 230 218 292 338 345
18 18 17 19 18 9 317 270 257 241 243 255 266 275 275 301 324 342 358 357 2 5 345 329 311 275 275 288 303 314 325 330 333
6 10 10 8 10 11 5 335 277 254 243 242 256 262 269 272 286 309 328 348 346 347 353 340 314 284 274 282 293 306 315 323 330
353 359 1 2 2 3 1 359 339 297 253 204 250 265 275 286 276 289 304 324 329 331 332 336 326 303 289 284 288 297 306 314 319
336 345 349 350 353 355 356 353 349 342 306 253 243 232 264 252 273 285 291 295 301 313 318 316 315 311 302 294 293 295 298 302 308
324 331 336 336 340 342 343 344 349 348 341 307 266 237 237 250 279 272 271 271 278 287 305 306 302 303 301 300 296 294 294 296 300
317 321 323 325 324 328 334 334 336 346 348 341 305 253 234 244 260 261 280 269 266 284 294 289 301 302 301 302 302 298 297 298 299
299 304 310 314 316 320 321 327 334 339 337 335 334 293 240 217 246 255 267 287 292 294 291 291 305 285 288 296 296 299 301 301 303
294 296 299 302 306 310 316 325 329 334 335 332 333 333 259 231 224 251 269 258 273 288 295 310 292 298 298 295 293 295 298 297 295
281 282 287 293 296 297 298 307 318 330 339 342 342 341 328 237 226 237 253 258 276 274 288 304 305 291 309 308 318 312 289 308 305
281 275 274 274 276 278 277 282 299 319 334 343 344 352 357 333 235 225 223 240 249 268 275 279 302 326 23 28 342 330 293 282 290
284 281 274 269 265 261 257 256 271 297 322 336 346 348 357 356 345 224 223 217 239 269 269 266 300 305 290 299 326 321 310 305 324
282 278 275 271 262 252 243 241 248 266 287 315 331 358 359 2 15 29 146 200 195 200 241 254 285 294 279 287 287 301 302 316 329
281 279 275 270 265 255 241 237 239 246 252 268 315 19 7 18 47 55 90 134 186 189 213 256 284 296 287 289 295 291 301 304 308
277 276 273 268 263 258 250 244 244 247 249 250 259 237 72 85 80 91 88 95 92 92 272 278 289 295 297 297 298 334 326 303 307